Location: ??
(31.9467°N, 34.8903°E)
Time: 17:19:25
(UTC+00:00)

Cosmos 1400 Rocket - Pass Details

Date: 29 October 2020
Orbit: 521 x 568 km, 81.2° (Epoch: 29 November)

Event Time Altitude Azimuth Distance (km) Brightness Sun altitude
Rises 15:26:46 0° 191° (S) 2,751 6.7 -7.8°
Reaches altitude 10° 15:28:57 10° 193° (SSW) 1,856 5.9 -8.2°
Maximum altitude 15:33:02 72° 278° (W) 597 3.2 -9.1°
Drops below altitude 10° 15:37:08 10° 3° (N) 1,853 5.4 -9.9°
Sets 15:39:19 0° 6° (N) 2,746 6.2 -10.4°
